Date String (YYYY-MM-DD hh:mm:ss) UTC,Instrument flags,Ambient pressure (hPa),Sample flow (lpm),Bypass flow (lpm),Sample temperature (°C),Ambient temperature (°C),ASC tube jacket temperature (°C),LED temperature (°C),Box temperature (°C),Sample RH (%),Span deviation,Mass concentration (μg/m³),Mass concentration (μg/m³),Mass concentration (μg/m³)
DateTimeUTC,F1_M11,P_M11,Q1_M11,Q2_M11,T1_M11,T2_M11,T3_M11,T4_M11,T5_M11,U1_M11,ZSPAN_M11,X0_M11,X2_M11,X1_M11
2022-02-10 11:00:00,,0827.7,5.01,0.00,22.4,22.0,00.0,31.3,24.2,15.1,0000.0,0009.02,0003.80,0003.18
2022-02-10 11:01:00,,0827.7,4.99,0.00,22.4,21.9,00.0,31.3,24.2,15.1,0000.0,0009.75,0003.86,0003.19
2022-02-10 11:02:00,,0827.7,5.00,0.00,22.4,21.9,00.0,31.3,24.2,15.1,0000.0,0010.13,0003.89,0003.19
2022-02-10 11:03:00,,0827.7,5.01,0.00,22.4,21.8,00.0,31.3,24.2,15.1,0000.0,0011.62,0003.94,0003.20
2022-02-10 11:04:00,,0827.7,5.00,0.00,22.4,21.8,00.0,31.3,24.2,15.0,0000.0,0011.90,0004.00,0003.20
2022-02-10 11:05:00,,0827.7,5.01,0.00,22.4,21.8,00.0,31.3,24.2,15.0,0000.0,0011.90,0004.03,0003.20
2022-02-10 11:06:00,,0827.7,4.98,0.00,22.4,21.8,00.0,31.3,24.2,15.0,0000.0,0011.81,0004.06,0003.20
2022-02-10 11:07:00,,0827.7,4.99,0.00,22.3,21.7,00.0,31.3,24.2,15.0,0000.0,0011.89,0004.13,0003.21
2022-02-10 11:08:00,,0827.7,5.00,0.00,22.3,21.7,00.0,31.3,24.1,15.0,0000.0,0012.80,0004.19,0003.23
2022-02-10 11:09:00,,0827.7,4.99,0.00,22.3,21.7,00.0,31.3,24.1,15.0,0000.0,0012.89,0004.15,0003.23
2022-02-10 11:10:00,,0827.7,5.01,0.00,22.3,21.7,00.0,31.3,24.1,15.0,0000.0,0013.13,0004.16,0003.23
2022-02-10 11:11:00,,0827.6,4.99,0.00,22.3,21.7,00.0,31.3,24.1,15.0,0000.0,0013.43,0004.17,0003.23
2022-02-10 11:12:00,,0827.6,5.01,0.00,22.3,21.6,00.0,31.3,24.1,15.0,0000.0,0012.92,0004.14,0003.21
2022-02-10 11:13:00,,0827.6,4.99,0.00,22.3,21.6,00.0,31.3,24.1,14.9,0000.0,0012.28,0004.09,0003.18
2022-02-10 11:14:00,,0827.6,5.02,0.00,22.3,21.6,00.0,31.3,24.1,14.9,0000.0,0011.11,0004.09,0003.16
2022-02-10 11:15:00,,0827.7,4.99,0.00,22.3,21.6,00.0,31.3,24.1,14.9,0000.0,0010.73,0004.07,0003.14
2022-02-10 11:16:00,,0827.6,5.00,0.00,22.3,21.6,00.0,31.3,24.1,15.0,0000.0,0010.87,0004.03,0003.13
2022-02-10 11:17:00,,0827.5,5.00,0.00,22.3,21.6,00.0,31.3,24.1,15.0,0000.0,0010.79,0004.01,0003.12
2022-02-10 11:18:00,,0827.5,4.99,0.00,22.3,21.6,00.0,31.3,24.1,14.8,0000.0,0010.98,0004.00,0003.07
2022-02-10 11:19:00,,0827.5,5.01,0.00,22.3,21.6,00.0,31.2,24.0,14.8,0000.0,0010.52,0003.93,0003.00
2022-02-10 11:20:00,,0827.5,4.99,0.00,22.2,21.5,00.0,31.2,24.0,14.8,0000.0,0010.20,0003.87,0002.94
2022-02-10 11:21:00,,0827.5,4.99,0.00,22.2,21.5,00.0,31.2,24.0,14.9,0000.0,0010.84,0003.88,0002.89
2022-02-10 11:22:00,,0827.6,5.01,0.00,22.2,21.5,00.0,31.2,24.0,14.9,0000.0,0010.93,0003.87,0002.85
2022-02-10 11:23:00,,0827.7,5.01,0.00,22.2,21.5,00.0,31.2,24.0,14.8,0000.0,0011.26,0003.87,0002.79
2022-02-10 11:24:00,,0827.7,4.99,0.00,22.2,21.5,00.0,31.2,24.0,14.9,0000.0,0011.20,0003.84,0002.77
2022-02-10 11:25:00,,0827.7,5.00,0.00,22.2,21.5,00.0,31.2,24.0,15.0,0000.0,0011.30,0003.81,0002.76
2022-02-10 11:26:00,,0827.7,5.00,0.00,22.2,21.8,00.0,31.2,24.1,15.1,0000.0,0011.09,0003.75,0002.72
2022-02-10 11:27:00,,0827.7,5.00,0.00,22.4,22.5,00.0,31.3,24.3,15.0,0000.0,0010.86,0003.71,0002.68
2022-02-10 11:28:00,,0827.7,5.00,0.00,22.5,23.0,00.0,31.3,24.5,14.8,0000.0,0011.30,0003.72,0002.65
2022-02-10 11:29:00,,0827.7,4.99,0.00,22.6,22.9,00.0,31.3,24.5,14.7,0000.0,0011.18,0003.69,0002.64
2022-02-10 11:30:00,,0827.6,5.00,0.00,22.6,22.7,00.0,31.4,24.5,14.6,0000.0,0011.15,0003.67,0002.65
2022-02-10 11:31:00,,0827.5,5.01,0.00,22.6,22.5,00.0,31.4,24.4,14.7,0000.0,0011.50,0003.69,0002.68
2022-02-10 11:32:00,,0827.5,4.98,0.00,22.5,22.4,00.0,31.4,24.4,14.7,0000.0,0010.80,0003.65,0002.68
2022-02-10 11:33:00,,0827.5,5.01,0.00,22.5,22.3,00.0,31.4,24.3,14.7,0000.0,0010.39,0003.68,0002.70
2022-02-10 11:34:00,,0827.5,5.00,0.00,22.5,22.2,00.0,31.4,24.3,14.7,0000.0,0010.09,0003.68,0002.74
2022-02-10 11:35:00,,0827.6,5.01,0.00,22.5,22.1,00.0,31.4,24.3,14.7,0000.0,0009.84,0003.70,0002.76
2022-02-10 11:36:00,,0827.7,5.00,0.00,22.5,22.0,00.0,31.4,24.3,14.8,0000.0,0009.57,0003.71,0002.75
2022-02-10 11:37:00,,0827.7,5.02,0.00,22.5,22.0,00.0,31.4,24.3,14.8,0000.0,0009.58,0003.73,0002.77
2022-02-10 11:38:00,,0827.7,5.00,0.00,22.5,21.9,00.0,31.4,24.3,14.7,0000.0,0009.49,0003.78,0002.79
2022-02-10 11:39:00,,0827.7,4.99,0.00,22.5,21.9,00.0,31.4,24.2,14.7,0000.0,0009.30,0003.78,0002.79
2022-02-10 11:40:00,,0827.7,5.01,0.00,22.4,21.8,00.0,31.4,24.2,14.7,0000.0,0009.50,0003.75,0002.80
2022-02-10 11:41:00,,0827.7,5.00,0.00,22.4,21.8,00.0,31.4,24.2,14.8,0000.0,0009.49,0003.77,0002.79
2022-02-10 11:42:00,,0827.7,5.00,0.00,22.4,21.8,00.0,31.4,24.2,14.8,0000.0,0009.14,0003.74,0002.76
2022-02-10 11:43:00,,0827.7,5.01,0.00,22.4,21.8,00.0,31.4,24.2,14.9,0000.0,0008.74,0003.70,0002.74
2022-02-10 11:44:00,,0827.7,4.99,0.00,22.4,21.7,00.0,31.4,24.2,15.0,0000.0,0008.45,0003.60,0002.72
2022-02-10 11:45:00,,0827.7,5.02,0.00,22.4,21.7,00.0,31.4,24.2,15.0,0000.0,0008.81,0003.57,0002.71
2022-02-10 11:46:00,,0827.7,4.98,0.00,22.4,21.7,00.0,31.4,24.2,15.1,0000.0,0008.60,0003.51,0002.71
2022-02-10 11:47:00,,0827.7,5.01,0.00,22.4,21.7,00.0,31.4,24.1,15.0,0000.0,0008.76,0003.49,0002.72
2022-02-10 11:48:00,,0827.7,4.98,0.00,22.3,21.7,00.0,31.4,24.1,15.0,0000.0,0009.37,0003.48,0002.72
2022-02-10 11:49:00,,0827.7,5.01,0.00,22.3,21.7,00.0,31.4,24.1,14.9,0000.0,0009.26,0003.45,0002.73
2022-02-10 11:50:00,,0827.7,4.99,0.00,22.3,21.6,00.0,31.4,24.1,14.9,0000.0,0009.03,0003.43,0002.73
2022-02-10 11:51:00,,0827.7,4.99,0.00,22.3,21.6,00.0,31.4,24.1,14.9,0000.0,0008.44,0003.43,0002.74
2022-02-10 11:52:00,,0827.7,5.01,0.00,22.3,21.6,00.0,31.3,24.0,14.9,0000.0,0008.13,0003.39,0002.76
2022-02-10 11:53:00,,0827.7,4.99,0.00,22.3,21.6,00.0,31.3,24.0,14.9,0000.0,0008.06,0003.41,0002.80
2022-02-10 11:54:00,,0827.7,5.01,0.00,22.3,21.6,00.0,31.3,24.0,14.9,0000.0,0008.82,0003.42,0002.81
2022-02-10 11:55:00,,0827.6,4.99,0.00,22.3,21.6,00.0,31.3,24.0,14.9,0000.0,0008.92,0003.43,0002.82
2022-02-10 11:56:00,,0827.6,5.01,0.00,22.3,21.6,00.0,31.3,24.0,14.8,0000.0,0008.40,0003.40,0002.80
2022-02-10 11:57:00,,0827.5,4.99,0.00,22.3,21.5,00.0,31.3,24.0,14.8,0000.0,0008.30,0003.40,0002.78
2022-02-10 11:58:00,,0827.5,5.00,0.00,22.2,21.5,00.0,31.3,23.9,14.8,0000.0,0008.13,0003.39,0002.77
2022-02-10 11:59:00,,0827.5,4.99,0.00,22.3,21.8,00.0,31.3,24.0,14.5,0000.0,0007.40,0003.35,0002.71
